Theta_e
333 335 337 339 339 339 340 340 339 338 339 340 339 340 338 339 340 338 336 335 332 330 328 326 325 325 324
332 329 331 335 337 338 337 334 333 334 335 335 334 338 339 339 338 337 336 335 332 329 327 325 323 322 325
331 328 329 330 332 331 331 327 329 337 336 333 330 333 336 336 338 337 336 334 330 328 326 324 322 325 325
329 332 335 335 336 335 335 334 332 335 335 332 327 328 331 333 336 336 335 330 326 326 325 322 326 325 324
330 330 333 333 335 336 335 334 333 333 334 333 334 332 334 329 334 335 332 331 330 328 327 327 326 325 325
331 330 331 332 333 334 334 333 333 332 333 332 332 332 332 333 332 333 332 332 330 329 328 327 325 325 323
331 331 331 329 331 332 334 333 332 331 331 330 330 330 329 330 331 331 331 330 329 328 328 327 326 325 324
330 331 331 331 330 331 331 332 331 331 331 327 328 327 326 327 329 329 329 329 328 328 327 327 326 325 324
329 330 331 331 330 329 330 331 331 330 329 328 328 327 325 325 326 326 326 326 326 326 325 325 325 325 324
332 329 329 330 331 327 328 329 330 329 329 328 327 327 325 324 323 323 322 322 322 322 322 322 322 323 323
331 330 329 329 329 327 326 329 329 329 328 328 327 328 326 323 322 321 319 320 318 318 318 319 319 319 320
330 329 329 328 328 329 326 325 327 327 327 327 327 327 326 324 322 320 319 319 318 318 312 312 316 316 316
325 326 325 324 325 326 328 326 324 324 324 325 326 326 325 324 323 321 319 317 313 313 311 312 311 313 314
310 322 327 327 327 326 328 325 324 325 325 323 325 324 325 323 322 322 320 316 316 311 311 308 306 311 312
305 312 327 327 326 325 324 323 325 323 325 326 324 325 325 325 323 323 321 317 314 312 310 311 303 305 305
304 307 310 324 322 324 326 325 324 325 323 325 323 324 325 325 324 324 323 320 318 313 311 311 314 313 307
Wind_Speed
10 8 10 10 10 10 9 9 7 11 10 11 9 11 11 11 15 18 17 16 16 16 16 14 8 1 8
9 7 6 8 8 8 10 9 9 10 9 9 9 8 9 8 13 17 17 15 16 15 14 12 9 3 9
11 9 7 7 7 10 10 8 11 10 9 10 8 9 9 7 9 17 16 16 13 11 10 12 10 5 6
9 9 8 7 8 8 7 9 6 8 9 7 7 9 9 8 9 15 14 13 11 9 7 7 3 5 4
10 7 5 5 5 5 8 6 6 6 7 6 6 6 6 7 6 9 11 9 7 7 7 6 5 6 3
8 8 8 6 6 6 6 7 6 5 6 6 5 5 5 5 7 7 6 6 8 7 6 5 7 5 3
11 9 7 7 6 7 7 8 6 6 7 5 5 5 4 5 5 6 6 6 7 7 5 5 5 5 5
10 12 8 7 8 7 7 8 9 7 7 7 6 5 5 5 5 5 5 6 6 5 6 5 5 5 5
11 9 8 8 8 7 7 9 10 9 8 9 6 6 5 4 5 4 4 4 4 4 5 5 5 6 6
12 9 6 8 8 5 6 7 11 10 10 9 7 6 6 5 5 5 4 4 4 4 4 4 4 5 7
10 8 9 8 8 7 4 7 11 11 10 9 8 7 7 6 6 5 5 5 5 4 4 4 4 5 6
8 7 7 7 6 6 7 6 8 8 9 9 8 9 8 7 6 6 7 5 4 4 2 4 5 6 6
5 4 4 6 7 7 7 13 11 9 8 9 8 10 10 10 9 10 8 8 5 3 2 4 7 9 11
6 5 3 4 5 8 8 11 12 14 14 9 11 11 12 9 12 11 11 7 7 6 3 1 4 4 6
11 7 4 2 2 4 7 7 12 12 11 14 13 11 12 11 11 13 12 14 8 7 9 4 2 4 3
10 8 6 7 5 6 6 7 9 13 12 15 12 12 10 9 12 10 11 11 10 9 6 9 10 6 5
Wind_Direction
149 163 157 163 161 150 147 128 136 144 138 114 109 125 123 121 145 139 136 135 134 132 129 123 120 138 107
164 137 160 165 153 139 120 118 118 119 122 117 122 114 113 109 131 143 138 139 140 137 135 122 118 192 106
175 151 136 130 116 111 120 115 143 144 146 147 104 118 110 108 129 147 144 140 138 134 143 136 170 120 123
174 156 165 145 167 163 163 165 160 155 151 141 116 101 100 104 121 145 139 131 161 152 151 163 157 141 134
172 174 175 165 171 167 165 172 162 153 154 162 145 149 143 156 132 153 143 168 171 169 168 188 151 172 144
178 189 184 184 176 171 172 171 168 171 182 172 170 160 161 168 159 165 175 177 179 181 185 178 187 178 188
191 183 193 192 186 185 176 177 175 182 187 171 174 178 169 168 171 175 175 177 182 183 187 200 210 207 195
197 192 186 193 190 192 191 182 185 187 194 181 194 187 181 183 175 177 181 182 189 198 203 216 220 220 220
187 197 196 194 194 195 194 194 194 190 200 191 200 193 185 180 178 176 175 191 197 203 226 221 229 230 232
211 197 191 205 196 185 195 195 197 197 188 204 202 200 191 185 187 189 187 193 212 217 223 227 237 242 241
209 211 206 206 210 188 184 199 200 201 193 199 207 206 190 194 200 199 198 212 210 218 237 248 254 259 257
208 209 208 194 214 202 188 188 194 206 203 209 206 199 194 198 206 207 215 211 234 235 222 256 267 264 256
321 189 226 192 196 198 198 188 183 195 201 212 214 206 198 201 206 206 208 212 208 205 214 244 256 250 255
331 325 185 185 203 205 192 193 194 202 200 208 213 212 206 204 210 207 204 201 217 189 197 212 289 276 244
332 318 232 134 165 188 201 195 202 194 211 213 212 219 218 212 207 207 206 207 211 201 207 204 213 245 319
334 336 340 225 200 201 194 199 198 206 200 210 209 216 217 224 229 216 208 212 218 212 210 235 244 256 258